Salt Lake City, UT

11:02 PM MDT on May 26, 2017 (GMT -0600)
Salt Lake City International

Weather History for KSLC - February, 2014

Change the Weather History Date:

Friday, February 21, 2014

  Actual Average Record
Temperature  
Mean Temperature 43 °F 36 °F  
Max Temperature 52 °F 45 °F 66 °F (1982)
Min Temperature 34 °F 27 °F 6 °F (1955)
Degree Days  
Heating Degree Days 22 29  
Month to date heating degree days 526 671  
Since 1 July heating degree days 3880 4065  
Cooling Degree Days 0 0  
Month to date cooling degree days 0 0  
Year to date cooling degree days 0 0  
Moisture  
Dew Point 19 °F    
Average Humidity 40    
Maximum Humidity 56    
Minimum Humidity 24    
Precipitation  
Precipitation 0.00 in 0.05 in 0.60 in (1906)
Month to date precipitation 0.91 0.91  
Year to date precipitation 2.11 2.16  
Snow  
Snow 0.00 in 0.40 in 6.60 in (1919)
Month to date snowfall 2.1 8.3  
Since 1 July snowfall 34.9 43.0  
Snow Depth 0.00 in    
Sea Level Pressure  
Sea Level Pressure 30.05 in    
Wind  
Wind Speed 5 mph (ESE)    
Max Wind Speed 12 mph    
Max Gust Speed 14 mph    
Visibility 10 miles    
Events      
T = Trace of Precipitation, MM = Missing Value Source: NWS Daily Summary

Daily Weather History Graph

Daily Weather History Graph

Search for Another Location

Airport or City:

Trip Planner

Search our weather history database for the weather conditions in past years. The results will help you decide how hot, cold, wet, or windy it might be!

Date:

Astronomy

Feb. 21, 2014 Rise Set
Actual Time 7:13 AM MST 6:09 PM MST
Civil Twilight 6:45 AM MST 6:37 PM MST
Nautical Twilight 6:13 AM MST 7:09 PM MST
Astronomical Twilight 5:42 AM MST 7:41 PM MST
Moon 12:09 AM MST (2/21) 10:38 AM MST (2/21)
Length of Visible Light 11h 51m
Length of Day
10h 56m
Waning Gibbous, 60% of the Moon is Illuminated
Feb 21
Waning Gibbous
Feb 22
Last Quarter
Mar 1
New
Mar 8
First Quarter
Mar 16
Full

Hourly Weather History & Observations

Time (MST) Temp. Windchill Dew Point Humidity Pressure Visibility Wind Dir Wind Speed Gust Speed Precip Events Conditions
12:53 AM 39.9 °F - 15.1 °F 36% 30.12 in 10.0 mi Calm Calm - N/A   Mostly Cloudy
1:53 AM 39.0 °F 36.8 °F 17.1 °F 41% 30.11 in 10.0 mi ESE 3.5 mph - N/A   Mostly Cloudy
2:53 AM 42.1 °F 39.2 °F 14.0 °F 32% 30.10 in 10.0 mi ESE 4.6 mph - N/A   Mostly Cloudy
3:53 AM 39.9 °F 35.1 °F 17.1 °F 40% 30.10 in 10.0 mi SE 6.9 mph - N/A   Mostly Cloudy
4:53 AM 39.0 °F 35.7 °F 17.1 °F 41% 30.11 in 10.0 mi SE 4.6 mph - N/A   Mostly Cloudy
5:53 AM 36.0 °F 31.1 °F 18.0 °F 48% 30.12 in 10.0 mi SE 5.8 mph - N/A   Partly Cloudy
6:53 AM 34.0 °F 28.0 °F 18.0 °F 52% 30.13 in 10.0 mi SE 6.9 mph - N/A   Partly Cloudy
7:53 AM 36.0 °F 30.3 °F 19.9 °F 52% 30.14 in 10.0 mi SE 6.9 mph - N/A   Partly Cloudy
8:53 AM 39.0 °F 33.4 °F 19.9 °F 46% 30.13 in 10.0 mi SE 8.1 mph - N/A   Scattered Clouds
9:53 AM 43.0 °F 39.5 °F 18.0 °F 37% 30.12 in 10.0 mi SSE 5.8 mph - N/A   Scattered Clouds
10:53 AM 48.0 °F - 21.0 °F 34% 30.10 in 10.0 mi West 4.6 mph - N/A   Scattered Clouds
11:53 AM 48.9 °F - 21.0 °F 33% 30.09 in 10.0 mi Variable 3.5 mph - N/A   Scattered Clouds
12:53 PM 50.0 °F - 21.9 °F 33% 30.06 in 10.0 mi NW 4.6 mph - N/A   Scattered Clouds
1:53 PM 51.1 °F - 23.0 °F 33% 30.03 in 10.0 mi North 5.8 mph - N/A   Scattered Clouds
2:53 PM 51.1 °F - 21.0 °F 31% 29.99 in 10.0 mi NE 5.8 mph - N/A   Mostly Cloudy
3:53 PM 51.1 °F - 21.0 °F 31% 29.99 in 10.0 mi NW 8.1 mph - N/A   Mostly Cloudy
4:53 PM 50.0 °F - 17.1 °F 27% 29.99 in 10.0 mi NNW 3.5 mph - N/A   Mostly Cloudy
5:53 PM 48.0 °F - 21.0 °F 34% 29.98 in 10.0 mi NNE 4.6 mph - N/A   Mostly Cloudy
6:53 PM 46.9 °F - 18.0 °F 32% 29.98 in 10.0 mi SE 3.5 mph - N/A   Mostly Cloudy
7:53 PM 42.1 °F 37.1 °F 19.0 °F 40% 29.98 in 10.0 mi SE 8.1 mph - N/A   Mostly Cloudy
8:53 PM 42.1 °F 37.7 °F 19.0 °F 40% 29.97 in 10.0 mi SSE 6.9 mph - N/A   Scattered Clouds
9:53 PM 41.0 °F 34.7 °F 19.0 °F 41% 29.97 in 10.0 mi ESE 10.4 mph - N/A   Scattered Clouds
10:53 PM 41.0 °F - 19.0 °F 41% 29.95 in 10.0 mi Calm Calm - N/A   Partly Cloudy
11:53 PM 37.9 °F 34.4 °F 21.0 °F 51% 29.94 in 10.0 mi SE 4.6 mph - N/A   Scattered Clouds